Regional Weather Roundup
Issued by NWS

Home | Current Version | Previous Version | Graphics & Text | Print | Product List | Glossary On
Versions: 1 2 3 4 5 6 7 8 9 10 11 12 13 14 15 16 17 18 19 20 21 22 23 24 25 26 27 28 29 30 31 32 33 34 35 36 37 38 39 40 41 42 43 44 45 46 47 48 49 50
847
ASUS43 KLOT 121003
RWRIL

ILLINOIS REGIONAL WEATHER ROUNDUP
NATIONAL WEATHER SERVICE CHICAGO/ROMEOVILLE IL
400 AM CST FRI FEB 12 2016

NOTE: "FAIR" INDICATES FEW OR NO CLOUDS BELOW 12,000 FEET WITH NO
SIGNIFICANT WEATHER AND/OR OBSTRUCTIONS TO VISIBILITY.

* THESE STATIONS ARE NOT UNDER NWS QUALITY CONTROL. THEY ALSO MAY NOT
  REPORT WEATHER SUCH AS PRECIPITATION OR FOG.

ILZ001-002-007-009-015-016-024-121100-
NORTHWEST ILLINOIS

CITY           SKY/WX    TMP DP  RH WIND       PRES   REMARKS
MOLINE         CLOUDY    21  15  78 W7        30.19F WCI  12
STERLING*      CLEAR     16   9  73 W6        30.16S WCI   7
SAVANNA*       CLOUDY    18   9  67 W3        30.19F
$$

ILZ003-004-008-010-011-017-018-121100-
NORTH CENTRAL ILLINOIS

CITY           SKY/WX    TMP DP  RH WIND       PRES   REMARKS
ROCKFORD       CLOUDY    18   7  62 W7        30.17F WCI   9
FREEPORT*      CLOUDY    16   8  71 W5        30.18F WCI   8
ROCHELLE*      CLEAR     13  10  85 SW5       30.18S WCI   5
DE KALB*       CLEAR     16   8  72 W6        30.16S WCI   7
$$

ILZ005-006-012>014-019>023-121100-
NORTHEAST ILLINOIS

CITY           SKY/WX    TMP DP  RH WIND       PRES   REMARKS
CHICAGO-OHARE  CLOUDY    19   8  62 W9        30.15F WCI   8
CHICAGO-MIDWAY MOCLDY    20   7  57 SW6       30.17F WCI  12
AURORA         CLEAR     15   9  76 W6        30.17F WCI   6
LANSING*       CLOUDY    19  11  74 SW5       30.18S WCI  12
WAUKEGAN       CLOUDY    19   7  59 VRB7G21   30.12F WCI  10
DUPAGE AIRPORT CLOUDY    16   7  67 SW7       30.15F WCI   6
WHEELING       CLOUDY    20   8  60 W7        30.17S WCI  11
MORRIS*        CLOUDY    21  14  75 CALM      30.16S
NORTHERLY ISL    N/A     21   7  54 SW7         N/A  WCI  13
$$

LMZ740>746-121100-
SOUTHERN LAKE MICHIGAN

STATION/POSITION SKY/WX   TEMP    WIND        PRES    VSBY  WAVE
                          AIR SEA DIR/SP/G                  HT/PER
                          (F)     (DEG/KT/KT) (MB)    (MI)  (FT/S)
HARRISON CRIB              22     250/ 17/ 19   N/A
BURNHAM HARBOR             21     270/  4/  9   N/A
CALUMET HARBOR             20     220/  6/  9 1021.0F
BURNS HARBOR               20     220/  7/ 11 1022.4F
MICHIGAN CITY              19     190/ 11/ 13   N/A
$$

ILZ025>027-034>036-040-047-049-050-058-095>099-121100-
WEST-CENTRAL ILLINOIS

CITY           SKY/WX    TMP DP  RH WIND       PRES   REMARKS
QUINCY         CLOUDY    20  17  88 CALM      30.20F
MACOMB*        CLOUDY    22  19  91 W6        30.23S WCI  14
$$

ILZ028>032-037-038-041>044-048-051>054-059>061-121100-
CENTRAL ILLINOIS

CITY           SKY/WX    TMP DP  RH WIND       PRES   REMARKS
BLOOMINGTON    LGT SNOW  20  19  96 W3        30.19S FOG
DECATUR        LGT SNOW  22  16  78 SW3       30.20F
PEORIA         LGT SNOW  22  17  81 W3        30.21S
LACON*         MIX PCPN  22  15  74 W5        30.20S WCI  15
LINCOLN*       FLURRIES  23  20  90 CALM      30.21S
SPRINGFIELD    LGT SNOW  22  20  92 W3        30.22R FOG
TAYLORVILLE    NOT AVBL
$$

ILZ033-039-045-046-055>057-062-063-121100-
EAST-CENTRAL ILLINOIS

CITY           SKY/WX    TMP DP  RH WIND       PRES   REMARKS
CHAMPAIGN      FLURRIES  21  15  78 SW7       30.20F WCI  12
MATTOON        LGT SNOW  21  12  68 CALM      30.20F
$$

ILZ079-100>102-121100-
SOUTHWEST ILLINOIS

CITY           SKY/WX    TMP DP  RH WIND       PRES   REMARKS
ALTON          CLOUDY    24  21  90 CALM      30.22F
BELLEVILLE     FLURRIES  25  24  96 NE3       30.21S
CAHOKIA*       CLOUDY    26  21  81 NE6       30.22S WCI  19
SPARTA*        CLOUDY    26  21  83 CALM      30.22S
$$

ILZ064>066-069>071-074>076-080>082-084>086-088>090-092>094-121100-
SOUTH-CENTRAL ILLINOIS

CITY           SKY/WX    TMP DP  RH WIND       PRES   REMARKS
CARBONDALE     CLOUDY    26  22  84 CALM      30.20F
CAIRO*         CLOUDY    29  26  86 NE6       30.19F WCI  23
MARION         LGT SNOW  27  25  93 CALM      30.21S
MT. VERNON     CLOUDY    25  18  74 CALM      30.22S
CENTRALIA*     MIX PCPN  26  21  81 N3        30.22R
SALEM*         LGT SNOW  27  18  70 N3        30.22R
$$

ILZ067-068-072-073-078-083-087-091-121100-
SOUTHEAST ILLINOIS

CITY           SKY/WX    TMP DP  RH WIND       PRES   REMARKS
LAWRENCEVILLE  CLOUDY    25  12  58 CALM      30.22S
HARRISBURG*    LGT SNOW  26  24  93 NE3       30.22S
ROBINSON*      CLOUDY    23  13  67 CALM      30.23S
$$

ABBREVIATIONS USED IN REMARKS
   TC - TEMPERATURE IN CELSIUS
  WCI - WIND CHILL INDEX
   HX - HEAT INDEX
  VSB - VISIBILITY
$$





USA.gov is the U.S. government's official web portal to all federal, state and local government web resources and services.